Regional Weather Roundup
Issued by NWS

Home | Current Version | Previous Version | Graphics & Text | Print | Product List | Glossary On
Versions: 1 2 3 4 5 6 7 8 9 10 11 12 13 14 15 16 17 18 19 20 21 22 23 24 25 26 27 28 29 30 31 32 33 34 35 36 37 38 39 40 41 42 43 44 45 46 47 48 49 50
000
ASUS45 KCYS 251810
RWRWY

WYOMING REGIONAL WEATHER ROUNDUP
NATIONAL WEATHER SERVICE CHEYENNE WY
1200 PM MDT MON JUL 25 2016

NOTE:  "FAIR" INDICATES FEW OR NO CLOUDS BELOW 12,000 FEET
WITH NO SIGNIFICANT WEATHER AND/OR OBSTRUCTIONS TO VISIBILITY.

WYZ001-251900-
YELLOWSTONE NATIONAL PARK

CITY           SKY/WX    TMP DP  RH WIND       PRES   REMARKS
LK YELLOWSTONE   N/A     69  32  25 VRB5      30.39F
6HR MIN TEMP:  35; 6HR MAX TEMP:  71;

W YELLOWSTONE  NOT AVBL

$$
WYZ002>013-054>058-071-098>099-251900-
NORTHERN WYOMING

CITY           SKY/WX    TMP DP  RH WIND       PRES   REMARKS
JACKSON        SUNNY     73  36  25 CALM      30.29F
CODY           FAIR      84  39  20 N7        30.14S
GREYBULL       FAIR      89  32  13 NW3       30.05F
6HR MIN TEMP:  57; 6HR MAX TEMP:  89;

WORLAND        FAIR      87  39  18 VRB3      30.07F
6HR MIN TEMP:  52; 6HR MAX TEMP:  87;

SHERIDAN       FAIR      91  40  16 VRB5      30.06S
6HR MIN TEMP:  53; 6HR MAX TEMP:  92;

BUFFALO        FAIR      91  32  12 E13G18    30.12F
6HR MIN TEMP:  62; 6HR MAX TEMP:  92;

GILLETTE       FAIR      90  43  19 SE15      30.09F
6HR MIN TEMP:  62; 6HR MAX TEMP:  90;

HULETT         FAIR      91  41  17 W7        30.09F
NEWCASTLE      FAIR      82  50  32 S16G26    30.13S

$$
WYZ014>020-022>026-101>103-251900-
CENTRAL WYOMING

CITY           SKY/WX    TMP DP  RH WIND       PRES   REMARKS
BIG PINEY      FAIR      80  23  12 CALM      30.32F
6HR MIN TEMP:  39; 6HR MAX TEMP:  81;

PINEDALE       FAIR      77  23  13 CALM      30.34S
DUBOIS         FAIR      79  19  11 NW14G22   30.29S
LANDER         FAIR      84  33  16 NE5       30.18S
6HR MIN TEMP:  57; 6HR MAX TEMP:  84;

RIVERTON       FAIR      82  40  22 SE9       30.18F
CASPER         FAIR      84  44  24 S7        30.16F
6HR MIN TEMP:  49; 6HR MAX TEMP:  84;

DOUGLAS          N/A    N/A N/A N/A MISG      30.14F

$$
WYZ021-027>030-104>119-251900-
SOUTHERN WYOMING

CITY           SKY/WX    TMP DP  RH WIND       PRES   REMARKS
EVANSTON       FAIR      83  32  16 SW13G20   30.31S
6HR MIN TEMP:  52; 6HR MAX TEMP:  83; 6HR PCP: TRACE;

KEMMERER         N/A     81  18   9 SE5       30.34S
FORT BRIDGER   FAIR      84  26  11 E5        30.33F
ROCK SPRINGS   FAIR      82  15   8 W6        30.31R
6HR MIN TEMP:  58; 6HR MAX TEMP:  82;

DIXON          FAIR      83  28  13 W6        30.32S
RAWLINS        FAIR      86  20   9 W15       30.29F
6HR MIN TEMP:  43; 6HR MAX TEMP:  86;

SARATOGA       FAIR      86  25  10 W16       30.32S
LARAMIE        FAIR      82  28  14 NW9       30.31S
6HR MIN TEMP:  47; 6HR MAX TEMP:  83;

CHEYENNE       FAIR      79  56  45 S13       30.25S
6HR MIN TEMP:  54; 6HR MAX TEMP:  80;

TORRINGTON     FAIR      84  56  38 SE18G28   30.11F
6HR MIN TEMP:  57; 6HR MAX TEMP:  84;

PINE BLUFFS    FAIR      77  55  47 SE14G20   30.21S

$$



USA.gov is the U.S. government's official web portal to all federal, state and local government web resources and services.